Time,TemperatureF,DewpointF,PressureIn,WindDirection,WindDirectionDegrees,WindSpeedMPH,WindSpeedGustMPH,Humidity,HourlyPrecipIn,Conditions,Clouds,dailyrainin,SoftwareType,DateUTC
2013-08-15 00:12:00,60.0,56.0,29.90,ENE,78,1.0,3.0,86,0.00,,,0.00,,2013-08-15 05:12:00,
2013-08-15 01:11:00,60.0,56.0,29.91,ENE,78,0.0,1.0,88,0.00,,,0.00,,2013-08-15 06:11:00,
2013-08-15 01:42:00,60.0,56.0,29.90,ENE,78,0.0,1.0,88,0.00,,,0.00,,2013-08-15 06:42:00,
2013-08-15 01:52:00,60.0,57.0,29.88,ENE,78,0.0,1.0,89,0.00,,,0.00,,2013-08-15 06:52:00,
2013-08-15 02:02:00,60.0,57.0,29.88,ENE,78,0.0,1.0,89,0.00,,,0.00,,2013-08-15 07:02:00,
2013-08-15 02:11:00,60.0,57.0,29.88,ENE,78,0.0,1.0,89,0.00,,,0.00,,2013-08-15 07:11:00,
2013-08-15 02:42:00,60.0,57.0,29.87,ENE,78,0.0,1.0,90,0.00,,,0.00,,2013-08-15 07:42:00,
2013-08-15 03:11:00,59.0,56.0,29.85,ENE,78,0.0,0.0,89,0.00,,,0.00,,2013-08-15 08:11:00,
2013-08-15 03:42:00,58.0,55.0,29.86,ENE,78,0.0,0.0,91,0.00,,,0.00,,2013-08-15 08:42:00,
2013-08-15 04:11:00,58.0,56.0,29.85,ENE,78,0.0,3.0,92,0.00,,,0.00,,2013-08-15 09:11:00,
2013-08-15 04:21:00,58.0,56.0,29.84,ENE,78,0.0,1.0,92,0.00,,,0.00,,2013-08-15 09:21:00,
2013-08-15 04:33:00,58.0,56.0,29.84,ENE,78,0.0,1.0,92,0.00,,,0.00,,2013-08-15 09:33:00,
2013-08-15 04:42:00,58.0,56.0,29.84,ENE,78,0.0,1.0,92,0.00,,,0.00,,2013-08-15 09:42:00,
2013-08-15 05:12:00,57.0,55.0,29.84,ENE,78,0.0,0.0,92,0.00,,,0.00,,2013-08-15 10:12:00,
2013-08-15 05:42:00,57.0,55.0,29.84,ENE,78,0.0,1.0,93,0.00,,,0.00,,2013-08-15 10:42:00,
2013-08-15 06:11:00,56.0,54.0,29.85,ENE,78,0.0,0.0,93,0.00,,,0.00,,2013-08-15 11:11:00,
2013-08-15 06:42:00,56.0,54.0,29.86,ENE,78,0.0,0.0,93,0.00,,,0.00,,2013-08-15 11:42:00,
2013-08-15 07:11:00,54.0,52.0,29.88,ENE,78,0.0,1.0,93,0.00,,,0.00,,2013-08-15 12:11:00,
2013-08-15 07:42:00,54.0,52.0,29.89,ENE,78,0.0,0.0,94,0.00,,,0.00,,2013-08-15 12:42:00,
2013-08-15 08:11:00,55.0,54.0,29.91,ENE,78,0.0,1.0,95,0.00,,,0.00,,2013-08-15 13:11:00,
2013-08-15 08:21:00,57.0,56.0,29.91,ENE,78,0.0,0.0,96,0.00,,,0.00,,2013-08-15 13:21:00,
2013-08-15 08:32:00,57.0,56.0,29.91,ENE,78,0.0,0.0,96,0.00,,,0.00,,2013-08-15 13:32:00,
2013-08-15 08:42:00,57.0,56.0,29.91,ENE,78,0.0,0.0,96,0.00,,,0.00,,2013-08-15 13:42:00,
2013-08-15 08:52:00,61.0,60.0,29.93,ENE,78,0.0,0.0,96,0.00,,,0.00,,2013-08-15 13:52:00,
2013-08-15 09:01:00,61.0,60.0,29.93,ENE,78,0.0,0.0,96,0.00,,,0.00,,2013-08-15 14:01:00,
2013-08-15 09:12:00,61.0,60.0,29.93,ENE,78,0.0,0.0,96,0.00,,,0.00,,2013-08-15 14:12:00,
2013-08-15 09:22:00,69.0,58.0,29.89,ENE,78,0.0,1.0,67,0.00,,,0.00,,2013-08-15 14:22:00,
2013-08-15 09:32:00,69.0,58.0,29.89,ENE,78,0.0,1.0,67,0.00,,,0.00,,2013-08-15 14:32:00,
2013-08-15 09:47:00,69.0,58.0,29.89,ENE,78,0.0,1.0,67,0.00,,,0.00,,2013-08-15 14:47:00,
2013-08-15 09:55:00,74.0,57.0,29.89,ENE,78,1.0,3.0,55,0.00,,,0.00,,2013-08-15 14:55:00,
2013-08-15 10:04:00,74.0,57.0,29.89,ENE,78,1.0,3.0,55,0.00,,,0.00,,2013-08-15 15:04:00,
2013-08-15 10:14:00,74.0,57.0,29.89,ENE,78,1.0,3.0,55,0.00,,,0.00,,2013-08-15 15:14:00,
2013-08-15 10:23:00,76.0,55.0,29.89,SSE,165,2.0,6.0,48,0.00,,,0.00,,2013-08-15 15:23:00,
2013-08-15 10:34:00,76.0,55.0,29.89,SSE,165,2.0,6.0,48,0.00,,,0.00,,2013-08-15 15:34:00,
2013-08-15 10:43:00,76.0,55.0,29.89,SSE,165,2.0,6.0,48,0.00,,,0.00,,2013-08-15 15:43:00,
2013-08-15 10:54:00,77.0,56.0,29.89,ESE,117,2.0,6.0,49,0.00,,,0.00,,2013-08-15 15:54:00,
2013-08-15 11:03:00,77.0,56.0,29.89,ESE,117,2.0,6.0,49,0.00,,,0.00,,2013-08-15 16:03:00,
2013-08-15 11:14:00,77.0,56.0,29.89,ESE,117,2.0,6.0,49,0.00,,,0.00,,2013-08-15 16:14:00,
2013-08-15 11:26:00,77.0,56.0,29.89,ESE,117,2.0,6.0,49,0.00,,,0.00,,2013-08-15 16:26:00,
2013-08-15 11:44:00,79.0,54.0,29.89,ENE,62,1.0,7.0,42,0.00,,,0.00,,2013-08-15 16:44:00,
2013-08-15 11:55:00,79.0,54.0,29.89,ENE,62,1.0,7.0,42,0.00,,,0.00,,2013-08-15 16:55:00,
2013-08-15 12:18:00,79.0,54.0,29.89,ESE,104,1.0,8.0,42,0.00,,,0.00,,2013-08-15 17:18:00,
2013-08-15 12:30:00,79.0,-99.9,29.89,ESE,104,1.0,8.0,42,0.00,,,0.00,,2013-08-15 17:30:00,
2013-08-15 12:35:00,-999.0,-99.9,29.88,ESE,106,2.0,6.0,-999,0.00,,,0.00,,2013-08-15 17:35:00,
2013-08-15 12:55:00,78.0,54.0,29.89,ESE,113,1.0,7.0,44,0.00,,,0.00,,2013-08-15 17:55:00,
2013-08-15 13:00:00,-999.0,-99.9,29.89,ESE,113,1.0,7.0,-999,-99.99,,,-99.99,,2013-08-15 18:00:00,
2013-08-15 13:05:00,-999.0,-99.9,29.86,East,80,2.0,13.0,-999,0.00,,,0.00,,2013-08-15 18:05:00,
2013-08-15 13:27:00,79.0,55.0,29.88,ESE,106,2.0,6.0,43,0.00,,,0.00,,2013-08-15 18:27:00,
2013-08-15 13:40:00,-999.0,-99.9,29.86,East,80,2.0,13.0,37,0.00,,,0.00,,2013-08-15 18:40:00,
2013-08-15 13:49:00,81.0,52.0,29.86,East,80,2.0,13.0,37,0.00,,,0.00,,2013-08-15 18:49:00,
2013-08-15 14:05:00,80.0,51.0,29.86,ENE,76,1.0,8.0,36,0.00,,,0.00,,2013-08-15 19:05:00,
2013-08-15 14:17:00,82.0,52.0,29.84,ENE,68,2.0,12.0,36,0.00,,,0.00,,2013-08-15 19:17:00,
2013-08-15 14:34:00,-999.0,-99.9,29.84,ENE,68,2.0,12.0,-999,-99.99,,,-99.99,,2013-08-15 19:34:00,
2013-08-15 14:49:00,80.0,51.0,29.86,ENE,76,1.0,8.0,36,0.00,,,0.00,,2013-08-15 19:49:00,
2013-08-15 15:17:00,79.0,54.0,29.87,ESE,117,2.0,8.0,42,0.00,,,0.00,,2013-08-15 20:17:00,
2013-08-15 15:31:00,79.0,54.0,29.87,ESE,117,2.0,8.0,42,0.00,,,0.00,,2013-08-15 20:31:00,
2013-08-15 15:35:00,78.0,52.0,29.85,SSW,192,2.0,10.0,40,0.00,,,0.00,,2013-08-15 20:35:00,
2013-08-15 15:46:00,79.0,52.0,29.86,ESE,110,2.0,10.0,39,0.00,,,0.00,,2013-08-15 20:46:00,
2013-08-15 16:02:00,79.0,52.0,29.86,ESE,110,2.0,10.0,39,0.00,,,0.00,,2013-08-15 21:02:00,
2013-08-15 16:17:00,78.0,52.0,29.85,SSW,192,2.0,10.0,40,0.00,,,0.00,,2013-08-15 21:17:00,
2013-08-15 16:57:00,77.0,51.0,29.86,SW,236,5.0,12.0,40,0.00,,,0.00,,2013-08-15 21:57:00,
2013-08-15 17:17:00,76.0,55.0,29.86,NW,304,3.0,12.0,48,0.00,,,0.00,,2013-08-15 22:17:00,
2013-08-15 17:29:00,76.0,55.0,29.86,NW,304,3.0,12.0,48,0.00,,,0.00,,2013-08-15 22:29:00,
2013-08-15 17:35:00,-999.0,-99.9,29.82,WSW,257,1.0,5.0,36,0.00,,,0.00,,2013-08-15 22:35:00,
2013-08-15 17:58:00,78.0,51.0,29.84,WSW,243,3.0,12.0,39,0.00,,,0.00,,2013-08-15 22:58:00,
2013-08-15 18:16:00,81.0,52.0,29.82,WSW,257,1.0,5.0,36,0.00,,,0.00,,2013-08-15 23:16:00,
2013-08-15 18:48:00,80.0,51.0,29.82,SE,137,1.0,7.0,37,0.00,,,0.00,,2013-08-15 23:48:00,
2013-08-15 18:55:00,80.0,51.0,29.82,SE,137,1.0,7.0,37,0.00,,,0.00,,2013-08-15 23:55:00,
2013-08-15 19:12:00,81.0,51.0,29.84,ESE,116,3.0,8.0,35,0.00,,,0.00,,2013-08-16 00:12:00,
2013-08-15 19:24:00,81.0,51.0,29.84,ESE,116,3.0,8.0,35,0.00,,,0.00,,2013-08-16 00:24:00,
2013-08-15 19:46:00,81.0,52.0,29.84,East,79,0.0,6.0,36,0.00,,,0.00,,2013-08-16 00:46:00,
2013-08-15 19:52:00,81.0,52.0,29.84,East,79,0.0,6.0,36,0.00,,,0.00,,2013-08-16 00:52:00,
2013-08-15 20:20:00,79.0,52.0,29.82,East,80,0.0,3.0,39,0.00,,,0.00,,2013-08-16 01:20:00,
2013-08-15 20:26:00,79.0,52.0,29.82,East,80,0.0,3.0,39,0.00,,,0.00,,2013-08-16 01:26:00,
2013-08-15 20:43:00,-999.0,-99.9,29.82,East,80,0.0,-999.0,-999,-99.99,,,-99.99,,2013-08-16 01:43:00,
2013-08-15 20:54:00,77.0,57.0,29.82,East,80,0.0,1.0,51,0.00,,,0.00,,2013-08-16 01:54:00,
2013-08-15 21:12:00,73.0,57.0,29.79,East,79,0.0,2.0,58,0.00,,,0.00,,2013-08-16 02:12:00,
2013-08-15 21:21:00,73.0,57.0,29.79,East,79,0.0,2.0,58,0.00,,,0.00,,2013-08-16 02:21:00,
2013-08-15 21:44:00,70.0,56.0,29.81,East,79,0.0,0.0,62,0.00,,,0.00,,2013-08-16 02:44:00,
2013-08-15 21:52:00,69.0,56.0,29.80,East,79,0.0,0.0,64,0.00,,,0.00,,2013-08-16 02:52:00,
2013-08-15 22:03:00,69.0,56.0,29.80,East,79,0.0,0.0,64,0.00,,,0.00,,2013-08-16 03:03:00,
2013-08-15 22:11:00,69.0,56.0,29.80,East,79,0.0,0.0,64,0.00,,,0.00,,2013-08-16 03:11:00,
2013-08-15 22:22:00,68.0,57.0,29.81,East,79,0.0,0.0,67,0.00,,,0.00,,2013-08-16 03:22:00,
2013-08-15 22:33:00,68.0,57.0,29.81,East,79,0.0,0.0,67,0.00,,,0.00,,2013-08-16 03:33:00,
2013-08-15 22:43:00,68.0,57.0,29.81,East,79,0.0,0.0,67,0.00,,,0.00,,2013-08-16 03:43:00,
2013-08-15 22:53:00,67.0,56.0,29.83,East,79,0.0,2.0,67,0.00,,,0.00,,2013-08-16 03:53:00,
2013-08-15 23:03:00,67.0,56.0,29.83,East,79,0.0,2.0,67,0.00,,,0.00,,2013-08-16 04:03:00,
2013-08-15 23:13:00,67.0,56.0,29.83,East,79,0.0,2.0,67,0.00,,,0.00,,2013-08-16 04:13:00,
2013-08-15 23:23:00,67.0,56.0,29.84,East,79,0.0,1.0,69,0.00,,,0.00,,2013-08-16 04:23:00,
2013-08-15 23:33:00,67.0,56.0,29.84,East,79,0.0,1.0,69,0.00,,,0.00,,2013-08-16 04:33:00,
2013-08-15 23:43:00,67.0,56.0,29.84,East,79,0.0,1.0,69,0.00,,,0.00,,2013-08-16 04:43:00,
2013-08-15 23:53:00,65.0,55.0,29.84,East,79,0.0,1.0,71,0.00,,,0.00,,2013-08-16 04:53:00,